Weather History for KE16 - November, 2013

Change the Weather History Date:

Wednesday, November 20, 2013

  Actual Average Record
Temperature  
Mean Temperature 58 °F -  
Max Temperature 62 °F - - ()
Min Temperature 53 °F - - ()
Degree Days  
Heating Degree Days 8    
Growing Degree Days 8 (Base 50)    
Moisture  
Dew Point 55 °F    
Average Humidity 96    
Maximum Humidity 100    
Minimum Humidity 77    
Precipitation  
Precipitation 0.42 in - - ()
Sea Level Pressure  
Sea Level Pressure 29.92 in    
Wind  
Wind Speed 4 mph (WSW)    
Max Wind Speed 15 mph    
Max Gust Speed 24 mph    
Visibility 8 miles    
Events Rain    
T = Trace of Precipitation, MM = Missing Value Source: NWS Daily Summary

Daily Weather History Graph

Daily Weather History Graph

Search for Another Location

Airport or City:

Trip Planner

Search our weather history database for the weather conditions in past years. The results will help you decide how hot, cold, wet, or windy it might be!

Date:

Astronomy

Nov. 20, 2013 Rise Set
Actual Time 6:50 AM PST 4:53 PM PST
Civil Twilight 6:22 AM PST 5:21 PM PST
Nautical Twilight 5:50 AM PST 5:52 PM PST
Astronomical Twilight 5:19 AM PST 6:23 PM PST
Moon 7:40 PM PST (11/20) 9:19 AM PST (11/20)
Length of Visible Light 10h 58m
Length of Day
10h 02m
Waning Gibbous, 91% of the Moon is Illuminated
Nov 20
Waning Gibbous
Nov 25
Last Quarter
Dec 2
New
Dec 9
First Quarter
Dec 17
Full

Hourly Weather History & Observations

Time (PST) Temp. Dew Point Humidity Pressure Visibility Wind Dir Wind Speed Gust Speed Precip Events Conditions
2:35 AM 55.4 °F 55.4 °F 100% 29.97 in 2.0 mi South 6.9 mph - N/A   Mist
2:55 AM 55.4 °F 55.4 °F 100% 29.97 in 2.5 mi SSE 5.8 mph - N/A   Overcast
3:15 AM 55.4 °F 55.4 °F 100% 29.96 in 1.8 mi SSE 4.6 mph - N/A   Overcast
3:35 AM 55.4 °F 55.4 °F 100% 29.96 in 2.0 mi SSE 5.8 mph - N/A   Overcast
3:55 AM 55.4 °F 55.4 °F 100% 29.95 in 3.0 mi SSE 3.5 mph - N/A   Overcast
4:15 AM 55.4 °F 55.4 °F 100% 29.95 in 6.0 mi Calm Calm - N/A   Overcast
4:35 AM 55.4 °F 55.4 °F 100% 29.95 in 3.0 mi Calm Calm - N/A   Overcast
4:55 AM 55.4 °F 55.4 °F 100% 29.95 in 5.0 mi Calm Calm - N/A   Overcast
5:15 AM 55.4 °F 55.4 °F 100% 29.95 in 10.0 mi Calm Calm - N/A   Overcast
5:35 AM 55.4 °F 55.4 °F 100% 29.95 in 10.0 mi Calm Calm - N/A   Overcast
5:55 AM 55.4 °F 55.4 °F 100% 29.95 in 10.0 mi Calm Calm - N/A   Overcast
6:15 AM 55.4 °F 55.4 °F 100% 29.95 in 9.0 mi SW 3.5 mph - N/A   Overcast
6:35 AM 55.4 °F 55.4 °F 100% 29.95 in 9.0 mi SSE 3.5 mph - N/A   Overcast
6:55 AM 55.4 °F 55.4 °F 100% 29.95 in 9.0 mi South 4.6 mph - N/A   Overcast
7:15 AM 55.4 °F 55.4 °F 100% 29.95 in 8.0 mi SSE 3.5 mph - N/A   Overcast
7:35 AM 55.4 °F 55.4 °F 100% 29.96 in 5.0 mi Calm Calm - N/A   Overcast
7:55 AM 55.4 °F 55.4 °F 100% 29.95 in 5.0 mi Calm Calm - N/A   Overcast
8:15 AM 55.4 °F 55.4 °F 100% 29.96 in 8.0 mi Calm Calm - N/A   Overcast
8:35 AM 55.4 °F 55.4 °F 100% 29.97 in 9.0 mi South 3.5 mph - N/A   Overcast
8:55 AM 55.4 °F 55.4 °F 100% 29.96 in 10.0 mi Calm Calm - N/A   Overcast
9:05 AM 57.2 °F 57.2 °F 100% 29.96 in 10.0 mi SSE 3.5 mph - N/A   Overcast
9:35 AM 57.2 °F 57.2 °F 100% 29.97 in 10.0 mi SSE 4.6 mph - N/A   Unknown
9:55 AM 57.2 °F 57.2 °F 100% 29.96 in 10.0 mi SSE 6.9 mph - N/A   Overcast
10:15 AM 59.0 °F 57.2 °F 94% 29.95 in 10.0 mi ESE 6.9 mph - N/A   Overcast
10:30 AM 59.0 °F 57.2 °F 94% 29.94 in 10.0 mi SSE 6.9 mph - N/A   Overcast
10:55 AM 59.0 °F 55.4 °F 88% 29.93 in 10.0 mi SE 8.1 mph - N/A   Overcast
11:15 AM 60.8 °F 57.2 °F 88% 29.92 in 10.0 mi SE 8.1 mph - N/A   Overcast
11:35 AM 60.8 °F 57.2 °F 88% 29.91 in 10.0 mi ESE 4.6 mph - N/A   Overcast
11:55 AM 60.8 °F 55.4 °F 82% 29.91 in 10.0 mi WSW 8.1 mph - N/A   Overcast
12:15 PM 60.8 °F 55.4 °F 82% 29.90 in 10.0 mi SW 8.1 mph - N/A   Overcast
12:35 PM 60.8 °F 55.4 °F 82% 29.89 in 10.0 mi SSW 6.9 mph - N/A   Overcast
12:55 PM 62.6 °F 55.4 °F 77% 29.89 in 10.0 mi SW 8.1 mph - N/A   Overcast
1:15 PM 62.6 °F 55.4 °F 77% 29.88 in 10.0 mi SW 5.8 mph - N/A   Overcast
1:30 PM 62.6 °F 55.4 °F 77% 29.87 in 10.0 mi SSW 6.9 mph - N/A   Mostly Cloudy
1:50 PM 62.6 °F 55.4 °F 77% 29.87 in 10.0 mi SW 4.6 mph - N/A   Mostly Cloudy
2:15 PM 60.8 °F 55.4 °F 82% 29.87 in 10.0 mi SW 5.8 mph - N/A   Overcast
2:35 PM 60.8 °F 55.4 °F 82% 29.88 in 10.0 mi SW 5.8 mph - N/A Rain Light Rain
2:50 PM 59.0 °F 55.4 °F 88% 29.88 in 5.0 mi SW 5.8 mph - 0.02 in Rain Light Rain
3:10 PM 57.2 °F 55.4 °F 94% 29.89 in 1.5 mi NNW 15.0 mph 24.2 mph 0.21 in Rain Heavy Rain
3:35 PM 55.4 °F 55.4 °F 100% 29.89 in 5.0 mi NW 9.2 mph - 0.31 in Rain Light Rain
3:55 PM 55.4 °F 55.4 °F 100% 29.88 in 9.0 mi Calm Calm - 0.33 in Rain Light Rain
4:15 PM 55.4 °F 55.4 °F 100% 29.88 in 10.0 mi Calm Calm - N/A   Overcast
4:35 PM 57.2 °F 55.4 °F 94% 29.88 in 10.0 mi Calm Calm - N/A   Overcast
4:55 PM 57.2 °F 55.4 °F 94% 29.88 in 10.0 mi NNW 3.5 mph - N/A   Overcast
5:15 PM 57.2 °F 55.4 °F 94% 29.88 in 10.0 mi Calm Calm - N/A   Overcast
5:35 PM 57.2 °F 55.4 °F 94% 29.89 in 8.0 mi NNW 4.6 mph - N/A   Overcast
5:55 PM 55.4 °F 55.4 °F 100% 29.89 in 3.0 mi NW 6.9 mph - 0.01 in Rain Light Rain
6:10 PM 55.4 °F 55.4 °F 100% 29.89 in 2.0 mi NNW 6.9 mph - 0.02 in Rain Light Rain
6:30 PM 55.4 °F 55.4 °F 100% 29.89 in 2.0 mi WNW 5.8 mph - 0.06 in Rain Light Rain
6:50 PM 55.4 °F 55.4 °F 100% 29.89 in 10.0 mi NNW 3.5 mph - 0.06 in   Overcast
7:15 PM 55.4 °F 55.4 °F 100% 29.90 in 10.0 mi NNW 4.6 mph - N/A   Overcast
7:35 PM 55.4 °F 55.4 °F 100% 29.90 in 10.0 mi Calm Calm - N/A   Mostly Cloudy
7:55 PM 53.6 °F 53.6 °F 100% 29.91 in 10.0 mi North 3.5 mph - N/A   Scattered Clouds
8:15 PM 55.4 °F 55.4 °F 100% 29.91 in 10.0 mi NNW 4.6 mph - N/A   Overcast
8:35 PM 55.4 °F 55.4 °F 100% 29.91 in 10.0 mi NW 8.1 mph - N/A   Overcast
8:55 PM 53.6 °F 53.6 °F 100% 29.91 in 10.0 mi NNW 5.8 mph - N/A   Mostly Cloudy
9:10 PM 53.6 °F 53.6 °F 100% 29.92 in 8.0 mi NNW 5.8 mph - N/A   Mostly Cloudy
9:35 PM 53.6 °F 53.6 °F 100% 29.92 in 7.0 mi NW 4.6 mph - N/A   Overcast
9:55 PM 53.6 °F 53.6 °F 100% 29.92 in 5.0 mi NW 5.8 mph - N/A   Mostly Cloudy
10:15 PM 53.6 °F 53.6 °F 100% 29.91 in 5.0 mi NW 3.5 mph - N/A   Mostly Cloudy
10:35 PM 53.6 °F 53.6 °F 100% 29.91 in 6.0 mi NW 6.9 mph - N/A   Mostly Cloudy
10:55 PM 53.6 °F 53.6 °F 100% 29.91 in 10.0 mi NNW 5.8 mph - N/A   Overcast
11:15 PM 53.6 °F 53.6 °F 100% 29.92 in 10.0 mi NNW 6.9 mph - N/A   Overcast
11:35 PM 53.6 °F 53.6 °F 100% 29.92 in 8.0 mi North 5.8 mph - N/A   Overcast
11:55 PM 53.6 °F 53.6 °F 100% 29.92 in 7.0 mi North 6.9 mph - N/A   Overcast